Location: Ocean City
(38.3360°N, 75.0850°W)
Time: 10:03:39
(UTC-04:00)

MOZHAYETS 4 - Pass Details

Date: 27 May 2019
Orbit: 661 x 681 km, 98.0° (Epoch: 26 June)

Event Time Altitude Azimuth Distance (km) Brightness Sun altitude
Exits shadow 02:29:06 26° 107° (ESE) 1,305 9.2 -26.6°
Maximum altitude 02:30:37 33° 70° (ENE) 1,126 9.2 -26.5°
Drops below altitude 10° 02:34:44 10° 7° (N) 2,107 11.2 -26.2°
Sets 02:37:07 0° 358° (N) 3,021 12.1 -26.0°
